Location: Unspecified
(42.3650°N, 71.1030°W)
Time: 17:06:19
(UTC+00:00)

S-56A Canister/Altair - Pass Details

Date: 25 June 2024
Orbit: 638 x 2487 km, 38.9° (Epoch: 20 July)

Event Time Altitude Azimuth Distance (km) Brightness Sun altitude
Rises 02:06:35 0° 253° (WSW) 4,098 11.5 -14.5°
Reaches altitude 10° 02:09:00 10° 251° (WSW) 3,340 11.0 -14.8°
Maximum altitude 02:17:41 72° 170° (S) 1,823 9.2 -15.8°
Drops below altitude 10° 02:30:41 10° 90° (E) 4,827 11.3 -17.1°
Sets 02:34:54 0° 88° (E) 5,995 11.8 -17.5°
